Current Version              Previous Version:    01  02  03  04  05  06  07  08  09  10  11  12  13  14  15  16  17  18  19  20  21  22  23  24  25  26  27  28  29  30  
   31  32  33  34  35  36  37  38  39  40  41  42  43  44  45  46  47  48  49  50  51  52  53  54  55  56  57  58  59  60  

[Printable]
260
ASUS44 KFWD 242115
RWRTX
NORTH TEXAS HOURLY WEATHER ROUNDUP
NATIONAL WEATHER SERVICE FORT WORTH TX
400 PM CDT THU JUL 24 2014

NOTE: "FAIR" INDICATES FEW OR NO CLOUDS BELOW 12,000 FEET WITH NO
SIGNIFICANT WEATHER AND/OR OBSTRUCTIONS TO VISIBILITY.

TXZ118-119-242200-
DALLAS/FORT WORTH METROPLEX

CITY           SKY/WX    TMP DP  RH WIND       PRES   REMARKS
DFW AIRPORT    MOSUNNY   95  62  33 NE8       29.99F HX  96
DALLAS LOVE    SUNNY     95  63  34 MISG      29.99F HX  96
FTW MEACHAM    SUNNY     96  67  38 NE10      29.98F HX 100
DAL-EXECUTIVE  SUNNY     95  62  33 E8        29.99F HX  96
FTW-ALLIANCE   SUNNY     93  64  38 VRB5      29.99F HX  94
FTW-NAS-JRB    MOSUNNY   97  62  31 N8        30.03F HX  98
FTW-SPINKS     SUNNY     95  61  31 NE6       30.00F HX  95
ARLINGTON      SUNNY     95  60  31 NE9       29.99F HX  95
GRAND PRAIRIE  SUNNY     93  57  29 NE8       30.00F HX  92
ADDISON        SUNNY     93  63  36 E7        30.01F HX  94
MESQUITE       SUNNY     91  63  38 E8        30.00F HX  92
LANCASTER      SUNNY     94  62  34 NE6       30.00F HX  95
$$

TXZ091>094-102>105-117-120-121-131>134-242200-
NORTH CENTRAL TEXAS

CITY           SKY/WX    TMP DP  RH WIND       PRES   REMARKS
SHRMAN/DENISON SUNNY     93  64  38 E7        30.02S HX  94
GAINESVILLE    SUNNY     92  66  42 E5        30.02F HX  94
BOWIE          MOSUNNY   92  70  48 S8        30.01F HX  98
BRIDGEPORT     MOSUNNY   93  65  38 SE3       30.02F HX  95
DECATUR        SUNNY     91  66  43 E3        30.02F HX  94
DENTON         SUNNY     92  64  39 CALM      30.00F HX  93
MCKINNEY       SUNNY     91  66  43 E7G17     30.00F HX  93
GREENVILLE     SUNNY     90  66  45 SE8       30.01F HX  92
ROCKWALL       SUNNY     91  68  46 E5        29.99F HX  95
TERRELL        SUNNY     93  67  42 NE10G18   30.01F HX  96
WAXAHACHIE     SUNNY     93  56  28 E6G17     30.00F HX  92
CLEBURNE       SUNNY     95  66  38 VRB5      30.01F HX  98
GRANBURY       MOSUNNY   96  64  35 NE10      30.00F HX  98
$$

TXZ083>090-098>101-113>116-127>130-139>142-154-155-242200-
WESTERN NORTH TEXAS

CITY           SKY/WX    TMP DP  RH WIND       PRES   REMARKS
WICHITA FALLS  MOSUNNY   94  72  48 SE9       30.00F HX 102
WF-KICKAPOO    SUNNY     94  67  42 NE6       30.02F HX  97
VERNON         SUNNY     97  65  35 SE5       30.01F HX 100
ABILENE        MOSUNNY   95  65  37 E8        30.03F HX  97
ABILENE-DYESS  MOSUNNY   96  66  36 NE9       30.02F HX  99
BRECKENRIDGE   PTSUNNY   99  62  30 SE5       30.00F HX 100
GRAHAM         MOSUNNY   97  65  34 CALM      29.99F HX  99
MINERAL WELLS  SUNNY     96  67  38 NE9       29.99F HX 100
STEPHENVILLE   SUNNY     93  64  38 CALM      30.05F HX  94
COMANCHE       MOSUNNY   95  65  36 E7        30.02F HX  97
BROWNWOOD      MOSUNNY   93  66  40 SE9       30.02F HX  96
COLEMAN        MOSUNNY   94  62  34 SE9       30.04F HX  95
BRADY          MOSUNNY   93  64  38 E10       30.04F HX  95
$$

TXZ143>147-156>162-174-175-242200-
CENTRAL TEXAS

CITY           SKY/WX    TMP DP  RH WIND       PRES   REMARKS
WACO           MOSUNNY   94  68  42 VRB5      29.98F HX  98
WACO-TSTC      SUNNY     95  66  38 CALM      29.97F HX  98
WACO-MCGREGOR  SUNNY     95  66  38 NE7       29.99F HX  98
HILLSBORO      SUNNY     96  63  33 NE6       29.99F HX  96
CORSICANA      SUNNY     93  64  38 E13       30.00F HX  94
MEXIA          SUNNY     92  67  44 CALM      29.98F HX  95
CAMERON        PTSUNNY   92  73  52 S6        29.98F HX 100
TEMPLE         MOSUNNY   93  68  43 N6        29.99F HX  97
KILLEEN        PTSUNNY   93  68  43 E7        29.99F HX  97
KILLEEN-SKYLRK MOSUNNY   91  70  49 E10       29.99F HX  97
FORT HOOD      MOSUNNY   95  69  42 VRB6      29.99F HX 100
GATESVILLE     SUNNY     93  64  38 NE6       30.01F HX  95
HAMILTON       MOSUNNY   93  66  40 NE7       30.03F HX  96
LAMPASAS       MOSUNNY   94  69  43 NE10G16   30.00F HX  99
$$

TXZ095>097-106>112-122>126-135>138-148>153-164>167-242200-
EAST TEXAS

CITY           SKY/WX    TMP DP  RH WIND       PRES   REMARKS
PARIS          SUNNY     88  70  55 E6        30.03S HX  92
SULPHUR SPRNGS SUNNY     88  69  52 E7        30.04F HX  92
CLARKSVILLE    MOSUNNY   89  70  53 SE5       30.02F HX  93
MOUNT PLEASANT PTSUNNY   85  70  60 E5        30.04S
GILMER         MOSUNNY   84  73  70 NE8       30.04F HX  91
MINEOLA        SUNNY     90  72  55 NE5       30.02F HX  96
TYLER          SUNNY     90  69  50 CALM      30.01F HX  94
LONGVIEW       PTSUNNY   87  71  58 NE6       30.01F HX  93
MARSHALL       CLOUDY    82  73  72 NE3       30.04F
ATHENS         SUNNY     88  68  51 E5        29.99F HX  91
JACKSONVILLE   SUNNY     89  68  50 NE5       30.03F HX  92
HENDERSON      MOSUNNY   88  69  51 NE3       30.02F HX  92
NACOGDOCHES    SUNNY     90  70  51 NW3       30.00F HX  95
LUFKIN         SUNNY     94  69  44 CALM      29.99F HX  99
$$

SUPPLEMENTAL OBSERVATIONS (CENTRAL)

CITY           SKY/WX    TMP DP  RH WIND       PRES   REMARKS
LAKE TEXOMA      N/A     90  63  40 E3          N/A  HX  90
CADDO GRASSLND   N/A     90  68  48 E5          N/A  HX  93
PAT MAYSE LAKE   N/A     88  70  55 NE2         N/A  HX  92
ATHENS           N/A     90  66  45 E6          N/A  HX  92
PALESTINE        N/A     91  68  46 NE2         N/A  HX  95
LAKE LIMESTONE   N/A     91  72  52 NE3         N/A  HX  98
MCGREGOR         N/A     95  64  36 NE9         N/A  HX  97
TEMPLE           N/A     93  70  46 E5          N/A  HX  99
$$

SUPPLEMENTAL OBSERVATIONS (WEST)

CITY           SKY/WX    TMP DP  RH WIND       PRES   REMARKS
MILLERS CREEK    N/A    100  68  34 E3G15       N/A  HX 106
POSSUM KINGDOM   N/A     97  64  34 NE7         N/A  HX  99
LBJ GRASSLAND    N/A     93  70  46 E6          N/A  HX  99
GRANBURY         N/A     97  64  34 NE9         N/A  HX  99
COMANCHE         N/A     95  68  41 E8G16       N/A  HX  99
HAMBY            N/A     97  64  34 E8G17       N/A  HX  99
COLORADO BEND    N/A     93  63  36 E8          N/A  HX  94
$$

SUPPLEMENTAL OBSERVATIONS (EAST)

CITY           SKY/WX    TMP DP  RH WIND       PRES   REMARKS
TEXARKANA        N/A     82  72  69 NE5         N/A
LINDEN           N/A     82  72  69 E2          N/A
HENDERSON        N/A     90  68  48 N2G12       N/A  HX  93
LUFKIN           N/A     91  72  52 MISG        N/A  HX  98
$$

SUPPLEMENTAL OBSERVATIONS ARE A COLLECTION OF AUTOMATED INSTRUMENTS
THAT ARE MAINTAINED BY A VARIETY OF FEDERAL AND STATE AGENCIES.
CERTAIN ELEMENTS...SUCH AS HUMIDITY VALUES AND SUSTAINED WIND
SPEEDS...MAY BE APPROXIMATED.